Mansfield, OH

8:17 AM EST on December 10, 2019 (GMT -0500)
Mansfield Lahm Regional

Weather History for KMFD - July, 2019

Change the Weather History Date:

Monday, July 22, 2019

  Actual Average Record
Temperature  
Mean Temperature 69 °F 72 °F  
Max Temperature 75 °F 82 °F 103 °F (1934)
Min Temperature 62 °F 62 °F 45 °F (1936)
Degree Days  
Heating Degree Days 0 0  
Month to date heating degree days 0 0  
Since 1 June heating degree days 30 53  
Since 1 July heating degree days 0 0  
Cooling Degree Days 4 7  
Month to date cooling degree days 278 154  
Year to date cooling degree days 484 334  
Since 1 June cooling degree days 416 288  
Growing Degree Days 18 (Base 50)    
Moisture  
Dew Point 66 °F    
Average Humidity 87    
Maximum Humidity 100    
Minimum Humidity 73    
Precipitation  
Precipitation 0.34 in 0.14 in 1.88 in (1953)
Month to date precipitation 6.87 3.15  
Year to date precipitation 34.16 25.23  
Snow  
Snow 0.00 in 0.00 in - ()
Month to date snowfall 0.0 0.0  
Since 1 June snowfall 0.0 0.0  
Since 1 July snowfall 0.0 0.0  
Snow Depth 0.00 in    
Sea Level Pressure  
Sea Level Pressure 29.91 in    
Wind  
Wind Speed 8 mph (North)    
Max Wind Speed 16 mph    
Max Gust Speed 21 mph    
Visibility 7 miles    
Events Fog , Rain    
T = Trace of Precipitation, MM = Missing Value Source: NWS Daily Summary

Daily Weather History Graph

Daily Weather History Graph

Search for Another Location

Airport or City:

Astronomy

Jul. 22, 2019 Rise Set
Actual Time 6:17 AM EDT 8:55 PM EDT
Civil Twilight 5:45 AM EDT 9:27 PM EDT
Nautical Twilight 5:05 AM EDT 10:06 PM EDT
Astronomical Twilight 4:20 AM EDT 10:51 PM EDT
Moon No Moon Rise 11:34 AM EDT (7/22)
Length of Visible Light 15h 41m
Length of Day
14h 38m
Waning Gibbous, 72% of the Moon is Illuminated
Jul 22
Waning Gibbous
Jul 24
Last Quarter
Jul 31
New
Aug 7
First Quarter
Aug 15
Full

Hourly Weather History & Observations

Time (EDT) Temp. Dew Point Humidity Pressure Visibility Wind Dir Wind Speed Gust Speed Precip Events Conditions
12:52 AM 71.1 °F 71.1 °F 100% 29.89 in 10.0 mi SSE 9.2 mph - N/A   Overcast
1:52 AM 71.1 °F 71.1 °F 100% 29.88 in 10.0 mi North 3.5 mph - 0.06 in   Mostly Cloudy
2:25 AM 70.0 °F 70.0 °F 100% 29.90 in 10.0 mi NE 4.6 mph - N/A   Overcast
2:52 AM 70.0 °F 70.0 °F 100% 29.86 in 10.0 mi North 3.5 mph - N/A   Mostly Cloudy
3:21 AM 70.0 °F 70.0 °F 100% 29.90 in 10.0 mi ENE 4.6 mph - N/A   Mostly Cloudy
3:43 AM 70.0 °F 70.0 °F 100% 29.91 in 10.0 mi NNW 3.5 mph - N/A   Overcast
3:50 AM 69.8 °F 69.8 °F 100% 29.90 in 10.0 mi North 3.5 mph - N/A   Overcast
3:52 AM 70.0 °F 70.0 °F 100% 29.86 in 10.0 mi NNE 4.6 mph - N/A   Overcast
4:52 AM 70.0 °F 70.0 °F 100% 29.84 in 10.0 mi ESE 4.6 mph - N/A   Overcast
5:29 AM 71.1 °F 70.0 °F 96% 29.88 in 1.5 mi North 5.8 mph - N/A   Overcast
5:36 AM 70.0 °F 70.0 °F 100% 29.88 in 0.5 mi North 5.8 mph - N/A Fog Fog
5:52 AM 70.0 °F 70.0 °F 100% 29.86 in 0.8 mi North 5.8 mph - N/A   Mist
6:02 AM 70.0 °F 70.0 °F 100% 29.89 in 1.0 mi NNE 3.5 mph - N/A   Mist
6:40 AM 69.1 °F 69.1 °F 100% 29.88 in 0.5 mi NNE 4.6 mph - N/A Fog Fog
6:52 AM 69.1 °F 69.1 °F 100% 29.86 in 0.8 mi NE 3.5 mph - N/A   Mist
7:46 AM 64.4 °F 64.4 °F 100% 29.89 in 1.2 mi NNE 12.7 mph - 0.03 in Rain Rain
7:47 AM 64.9 °F 64.9 °F 100% 29.87 in 1.2 mi NNE 13.8 mph - 0.03 in Rain Heavy Rain
8:01 AM 64.0 °F 64.0 °F 100% 29.89 in 3.0 mi NNE 11.5 mph - 0.17 in Rain Light Rain
8:24 AM 64.0 °F 63.0 °F 96% 29.90 in 5.0 mi NE 11.5 mph - 0.18 in Rain Light Rain
8:45 AM 64.9 °F 64.0 °F 97% 29.90 in 10.0 mi NE 13.8 mph - 0.18 in   Overcast
8:52 AM 64.9 °F 64.0 °F 97% 29.89 in 10.0 mi NNE 9.2 mph - 0.18 in   Overcast
8:59 AM 64.9 °F 64.9 °F 100% 29.92 in 2.5 mi North 6.9 mph - 0.01 in Rain Rain
9:04 AM 64.9 °F 64.9 °F 100% 29.92 in 1.5 mi North 6.9 mph - 0.04 in Rain Rain
9:14 AM 66.0 °F 64.9 °F 96% 29.93 in 2.5 mi NNW 9.2 mph - 0.06 in Rain Rain
9:25 AM 66.0 °F 66.0 °F 100% 29.93 in 6.0 mi NNW 9.2 mph - 0.06 in Rain Light Rain
9:37 AM 66.0 °F 64.9 °F 96% 29.92 in 7.0 mi NNE 13.8 mph - 0.07 in Rain Light Rain
9:52 AM 66.0 °F 66.0 °F 100% 29.90 in 10.0 mi NNE 13.8 mph - 0.07 in   Overcast
10:52 AM 66.0 °F 64.9 °F 96% 29.92 in 10.0 mi North 10.4 mph - N/A   Overcast
11:37 AM 66.9 °F 66.0 °F 97% 29.94 in 10.0 mi NNE 11.5 mph - N/A   Overcast
11:52 AM 66.9 °F 64.9 °F 93% 29.92 in 10.0 mi NNE 10.4 mph - N/A   Overcast
12:41 PM 69.1 °F 66.0 °F 90% 29.94 in 10.0 mi North 5.8 mph - N/A   Overcast
12:52 PM 70.0 °F 66.0 °F 87% 29.91 in 10.0 mi NNE 8.1 mph - N/A   Overcast
1:09 PM 70.0 °F 64.9 °F 84% 29.93 in 10.0 mi North 10.4 mph - N/A   Overcast
1:52 PM 72.0 °F 63.0 °F 73% 29.92 in 10.0 mi North 11.5 mph - N/A   Partly Cloudy
2:30 PM 73.0 °F 64.0 °F 73% 29.93 in 10.0 mi NNW 11.5 mph - N/A   Mostly Cloudy
2:52 PM 73.0 °F 64.0 °F 73% 29.91 in 10.0 mi NNW 12.7 mph - N/A   Mostly Cloudy
3:52 PM 73.9 °F 64.0 °F 71% 29.91 in 10.0 mi NNW 12.7 mph - N/A   Scattered Clouds
4:52 PM 72.0 °F 63.0 °F 73% 29.91 in 10.0 mi NNW 12.7 mph - N/A   Mostly Cloudy
5:52 PM 70.0 °F 64.0 °F 81% 29.93 in 10.0 mi NNW 9.2 mph - 0.00 in Rain Light Rain
6:52 PM 69.1 °F 64.0 °F 84% 29.93 in 10.0 mi NNW 4.6 mph - 0.00 in   Clear
7:52 PM 69.1 °F 64.9 °F 87% 29.93 in 10.0 mi NW 4.6 mph - N/A   Clear
8:52 PM 68.0 °F 63.0 °F 84% 29.95 in 10.0 mi NW 4.6 mph - N/A   Overcast
9:52 PM 68.0 °F 61.0 °F 78% 29.96 in 10.0 mi NNW 9.2 mph - N/A   Mostly Cloudy
10:52 PM 66.0 °F 59.0 °F 78% 29.98 in 10.0 mi North 8.1 mph - N/A   Scattered Clouds
11:52 PM 63.0 °F 59.0 °F 87% 29.98 in 10.0 mi NNW 3.5 mph - N/A   Clear